Location: Boleita
(10.4833°N, 66.8167°W)
Time: 02:23:58
(UTC+00:00)

Cosmos 1153 Rocket - Pass Details

Date: 08 November 2025
Orbit: 952 x 1005 km, 82.9° (Epoch: 08 December)

Event Time Altitude Azimuth Distance (km) Brightness Sun altitude
Rises 09:02:42 0° 352° (N) 3,649 7.3 -19.2°
Reaches altitude 10° 09:05:12 10° 350° (N) 2,709 6.6 -18.6°
Maximum altitude 09:11:22 71° 267° (W) 1,035 4.4 -17.1°
Drops below altitude 10° 09:17:38 10° 184° (S) 2,747 7.0 -15.6°
Sets 09:20:11 0° 182° (S) 3,703 7.7 -15.0°
